Regional Weather Roundup
Issued by NWS Bismarck, ND

Home | Current Version | Previous Version | Text Only | Print | Product List | Glossary On
Versions: 1 2 3 4 5 6 7 8 9 10 11 12 13 14 15 16 17 18 19 20 21 22 23 24 25 26 27 28 29 30 31 32 33 34 35 36 37 38 39 40 41 42 43 44 45 46 47 48 49 50
000
ASUS43 KBIS 230402
RWRBIS

NWR BROADCAST TEXT
NATIONAL WEATHER SERVICE BISMARCK ND
1100 PM CDT THU JUN 22 2017

NOTE: "FAIR" INDICATES FEW OR NO CLOUDS BELOW 12,000 FEET WITH NO
SIGNIFICANT WEATHER AND/OR OBSTRUCTIONS TO VISIBILITY.


CITY           SKY/WX    TMP DP  RH WIND       PRES   REMARKS
WILLISTON      CLOUDY    56  49  77 NW23G32   30.01R
MINOT          CLOUDY    60  52  74 W25G35    29.84R
MINOT AFB      CLOUDY    59  52  77 NW31G40   29.82R
BISMARCK       PTCLDY    62  45  53 NW17G25   29.90R
DICKINSON      PTCLDY    55  45  68 NW22G29   29.98R
GARRISON         N/A     56  52  86 NW22G35   29.88R
HETTINGER ARPT MOCLDY    55  41  59 NW20G28   30.04R
JAMESTOWN      CLEAR     63  42  46 NW23G31   29.79R
HAZEN          CLOUDY    61  48  63 W17       29.92R
LINTON         FAIR     N/A N/A N/A NW10      29.91R
MANDAN         FAIR      59  45  58 NW16      29.91R
STANLEY        CLOUDY    55  55 100 NW21G32   29.95R
TIOGA          CLOUDY    54  54 100 NW23G35   29.97R
WATFORD CITY   CLOUDY    54  52  94 NW18G28   30.00R
$$

CITY           SKY/WX    TMP DP  RH WIND       PRES   REMARKS
GRAND FORKS    PTCLDY    63  46  54 W23G31    29.70R
GRAND FORKS AF PTCLDY    61  45  56 NW13G24   29.71R
DEVILS LAKE    CLOUDY    60  48  64 W22       29.76R
FARGO          CLEAR     62  40  44 W9        29.73R
CAVALIER       FAIR      59  48  67 W16       29.67R
GRAFTON        MOCLDY    61  48  63 W14       29.70S
GWINNER        CLEAR     59  46  63 W9        29.79R
LANGDON        FAIR      55  50  82 W16       29.71R
ROLLA            N/A     57  52  82 W18G26    29.73S
$$

CITY           SKY/WX    TMP DP  RH WIND       PRES   REMARKS
ABERDEEN       CLOUDY    60  48  64 SW7       29.83R
MOBRIDGE       CLEAR     66  34  30 NW13      29.88R
BUFFALO          N/A     57  40  52 NW30G38   30.02R
RAPID CITY     PTCLDY    64  34  32 N17       30.04R
GLASGOW        CLOUDY    55  44  66 NW15      30.13R
SIDNEY         CLOUDY    56  46  69 NW26G35   30.06R
WOLF POINT     CLOUDY    56  45  66 NW17      30.11R
GLENDIVE       MOCLDY    53  46  77 NW22G35   30.09R
MILES CITY     PTCLDY    56  40  55 N20G30    30.15R
BAKER          MOCLDY    53  42  66 NW21G32   30.10R
$$

CITY           SKY/WX    TMP DP  RH WIND       PRES   REMARKS
BILLINGS       CLOUDY    56  34  43 NE8       30.25R
GREAT FALLS    CLEAR     50  37  61 S3        30.27R
$$





USA.gov is the U.S. government's official web portal to all federal, state and local government web resources and services.